| time (UTC) | temp F | wind direction | speed MPH | gust MPH | rain 1hr in | rain 24hr in | rain mn in | humidity % | barometer mb |
| 20260902061121 | 64 | 1 | 5.0 | 7.0 | 0.00 | 0.00 | 0.00 | 71 | 1020.7 |
| 20260902060508 | 63 | 347 | 6.0 | 8.0 | 0.00 | 0.00 | 0.00 | 73 | 1020.8 |
| 20260902055508 | 62 | 349 | 6.0 | 9.0 | 0.00 | 0.00 | 0.00 | 73 | 1020.8 |
| 20260902054121 | 62 | 349 | 6.0 | 10.0 | 0.00 | 0.00 | 0.00 | 73 | 1020.8 |
| 20260902053508 | 62 | 314 | 5.0 | 8.0 | 0.00 | 0.00 | 0.00 | 73 | 1020.8 |
| 20260902052507 | 62 | 339 | 6.0 | 8.0 | 0.00 | 0.00 | 0.00 | 72 | 1020.8 |
| 20260902051121 | 62 | 334 | 5.0 | 8.0 | 0.00 | 0.00 | 0.00 | 71 | 1020.8 |
| 20260902050507 | 62 | 349 | 7.0 | 8.0 | 0.00 | 0.00 | 0.00 | 68 | 1020.8 |
| 20260902045507 | 62 | 342 | 6.0 | 8.0 | 0.00 | 0.00 | 0.00 | 67 | 1020.8 |
| 20260902044121 | 62 | 341 | 6.0 | 9.0 | 0.00 | 0.00 | 0.00 | 67 | 1020.8 |
| 20260902043508 | 62 | 336 | 5.0 | 9.0 | 0.00 | 0.00 | 0.00 | 68 | 1020.8 |
| 20260902042508 | 62 | 282 | 3.0 | 4.0 | 0.00 | 0.00 | 0.00 | 70 | 1020.8 |
| 20260902041121 | 63 | 277 | 3.0 | 5.0 | 0.00 | 0.00 | 0.00 | 69 | 1021.1 |
| 20260902040507 | 63 | 4 | 5.0 | 6.0 | 0.00 | 0.00 | 0.00 | 66 | 1021.0 |
| 20260902035508 | 63 | 341 | 4.0 | 6.0 | 0.00 | 0.00 | 0.00 | 67 | 1021.1 |
| 20260902034508 | 63 | 297 | 3.0 | 5.0 | 0.00 | 0.00 | 0.00 | 67 | 1021.0 |
| 20260902033507 | 63 | 289 | 4.0 | 6.0 | 0.00 | 0.00 | 0.00 | 66 | 1020.8 |
| 20260902032507 | 63 | 337 | 6.0 | 9.0 | 0.00 | 0.00 | 0.00 | 65 | 1020.8 |
| 20260902031507 | 63 | 343 | 6.0 | 9.0 | 0.00 | 0.00 | 0.00 | 65 | 1020.7 |
| 20260902030508 | 63 | 339 | 6.0 | 9.0 | 0.00 | 0.00 | 0.00 | 65 | 1020.8 |
| 20260902025507 | 63 | 344 | 8.0 | 9.0 | 0.00 | 0.00 | 0.00 | 64 | 1020.7 |
| 20260902024508 | 63 | 331 | 6.0 | 8.0 | 0.00 | 0.00 | 0.00 | 65 | 1020.6 |
| 20260902023508 | 63 | 328 | 5.0 | 7.0 | 0.00 | 0.00 | 0.00 | 65 | 1020.7 |
| 20260902022507 | 63 | 337 | 6.0 | 9.0 | 0.00 | 0.00 | 0.00 | 66 | 1020.6 |
| 20260902021507 | 63 | 339 | 7.0 | 9.0 | 0.00 | 0.00 | 0.00 | 66 | 1020.7 |
| 20260902015508 | 63 | 340 | 6.0 | 9.0 | 0.00 | 0.00 | 0.00 | 67 | 1020.8 |
| 20260902014508 | 62 | 331 | 4.0 | 8.0 | 0.00 | 0.00 | 0.00 | 68 | 1020.8 |
| 20260902013507 | 63 | 331 | 4.0 | 7.0 | 0.00 | 0.00 | 0.00 | 67 | 1020.8 |
| 20260902012508 | 63 | 336 | 5.0 | 7.0 | 0.00 | 0.00 | 0.00 | 68 | 1020.8 |
| 20260902011507 | 64 | 346 | 9.0 | 10.0 | 0.00 | 0.00 | 0.00 | 66 | 1020.8 |
| 20260902010508 | 64 | 342 | 5.0 | 9.0 | 0.00 | 0.00 | 0.00 | 65 | 1020.7 |
| 20260902005508 | 64 | 339 | 4.0 | 7.0 | 0.00 | 0.00 | 0.00 | 65 | 1020.7 |
| 20260901221121 | 68 | 355 | 11.0 | 12.0 | 0.00 | 0.22 | 0.00 | 57 | 1020.3 |
| 20260901220508 | 68 | 355 | 11.0 | 13.0 | 0.00 | 0.23 | 0.22 | 54 | 1020.3 |
| 20260901215508 | 68 | 355 | 11.0 | 12.0 | 0.00 | 0.24 | 0.22 | 56 | 1020.3 |
| 20260901214121 | 69 | 352 | 9.0 | 11.0 | 0.00 | 0.27 | 0.22 | 56 | 1020.2 |
| 20260901213508 | 70 | 352 | 10.0 | 11.0 | 0.00 | 0.31 | 0.22 | 52 | 1020.2 |
| 20260901212508 | 69 | 352 | 9.0 | 11.0 | 0.00 | 0.32 | 0.22 | 53 | 1020.2 |
| 20260901211121 | 70 | 353 | 8.0 | 10.0 | 0.00 | 0.33 | 0.22 | 54 | 1020.1 |
| 20260901210507 | 70 | 353 | 7.0 | 10.0 | 0.00 | 0.37 | 0.22 | 54 | 1020.0 |
| 20260901205508 | 70 | 347 | 6.0 | 9.0 | 0.00 | 0.39 | 0.22 | 54 | 1020.1 |
| 20260901204122 | 71 | 321 | 4.0 | 8.0 | 0.00 | 0.39 | 0.22 | 52 | 1020.0 |
| 20260901203508 | 71 | 323 | 5.0 | 8.0 | 0.00 | 0.39 | 0.22 | 54 | 1020.0 |
| 20260901202508 | 71 | 338 | 4.0 | 8.0 | 0.00 | 0.39 | 0.22 | 54 | 1019.9 |
| 20260901201121 | 71 | 312 | 4.0 | 8.0 | 0.00 | 0.39 | 0.22 | 54 | 1019.9 |
| 20260901200508 | 71 | 324 | 5.0 | 8.0 | 0.00 | 0.39 | 0.22 | 52 | 1019.8 |
| 20260901194122 | 71 | 335 | 7.0 | 12.0 | 0.00 | 0.39 | 0.22 | 51 | 1019.7 |
| 20260901193508 | 71 | 345 | 7.0 | 12.0 | 0.00 | 0.39 | 0.22 | 50 | 1019.8 |
| 20260901192508 | 71 | 320 | 4.0 | 8.0 | 0.00 | 0.39 | 0.22 | 54 | 1019.6 |
| 20260901191121 | 71 | 312 | 4.0 | 8.0 | 0.00 | 0.39 | 0.22 | 54 | 1019.6 |
| 20260901190507 | 71 | 305 | 5.0 | 9.0 | 0.00 | 0.39 | 0.22 | 55 | 1019.6 |
| 20260901185508 | 72 | 299 | 6.0 | 7.0 | 0.00 | 0.39 | 0.22 | 54 | 1019.3 |
| 20260901184121 | 73 | 297 | 7.0 | 8.0 | 0.00 | 0.39 | 0.22 | 52 | 1019.3 |
| 20260901183508 | 73 | 297 | 6.0 | 7.0 | 0.00 | 0.39 | 0.22 | 52 | 1019.2 |
| 20260901182508 | 73 | 301 | 5.0 | 7.0 | 0.00 | 0.39 | 0.22 | 50 | 1019.0 |
| 20260901181121 | 74 | 311 | 4.0 | 9.0 | 0.00 | 0.39 | 0.22 | 48 | 1018.9 |
| 20260901180508 | 75 | 326 | 5.0 | 8.0 | 0.00 | 0.39 | 0.22 | 47 | 1018.8 |
| 20260901175508 | 76 | 318 | 5.0 | 9.0 | 0.00 | 0.39 | 0.22 | 42 | 1018.6 |
| 20260901174121 | 78 | 317 | 6.0 | 9.0 | 0.00 | 0.39 | 0.22 | 36 | 1018.5 |
| 20260901173508 | 78 | 313 | 6.0 | 11.0 | 0.00 | 0.39 | 0.22 | 35 | 1018.5 |
| 20260901172508 | 78 | 318 | 6.0 | 13.0 | 0.00 | 0.39 | 0.22 | 34 | 1018.4 |
| 20260901171121 | 79 | 317 | 7.0 | 14.0 | 0.00 | 0.39 | 0.22 | 33 | 1018.3 |
| 20260901170507 | 80 | 314 | 7.0 | 13.0 | 0.00 | 0.39 | 0.22 | 32 | 1018.3 |
| 20260901165507 | 80 | 305 | 4.0 | 14.0 | 0.00 | 0.39 | 0.22 | 31 | 1018.3 |
| 20260901164121 | 81 | 296 | 7.0 | 15.0 | 0.00 | 0.39 | 0.22 | 31 | 1018.2 |
| 20260901163508 | 81 | 298 | 6.0 | 13.0 | 0.00 | 0.39 | 0.22 | 31 | 1018.1 |
| 20260901162508 | 82 | 308 | 10.0 | 17.0 | 0.00 | 0.39 | 0.22 | 30 | 1018.2 |
| 20260901161121 | 82 | 304 | 5.0 | 10.0 | 0.00 | 0.39 | 0.22 | 30 | 1018.2 |
| 20260901160507 | 82 | 284 | 8.0 | 15.0 | 0.00 | 0.39 | 0.22 | 31 | 1018.2 |
| 20260901155508 | 82 | 314 | 7.0 | 18.0 | 0.00 | 0.39 | 0.22 | 30 | 1018.1 |
| 20260901154121 | 82 | 311 | 9.0 | 17.0 | 0.00 | 0.39 | 0.22 | 31 | 1018.1 |
| 20260901153508 | 82 | 305 | 6.0 | 17.0 | 0.00 | 0.39 | 0.22 | 31 | 1018.1 |
| 20260901152508 | 82 | 327 | 8.0 | 19.0 | 0.00 | 0.39 | 0.22 | 31 | 1018.1 |
| 20260901151121 | 82 | 318 | 11.0 | 26.0 | 0.00 | 0.39 | 0.22 | 31 | 1018.2 |
| 20260901150508 | 82 | 309 | 10.0 | 21.0 | 0.00 | 0.39 | 0.22 | 30 | 1018.2 |
| 20260901145507 | 82 | 288 | 11.0 | 23.0 | 0.00 | 0.39 | 0.22 | 31 | 1018.2 |
| 20260901144121 | 82 | 294 | 15.0 | 24.0 | 0.00 | 0.39 | 0.22 | 29 | 1018.2 |
| 20260901143507 | 82 | 315 | 13.0 | 23.0 | 0.00 | 0.39 | 0.22 | 32 | 1018.3 |
| 20260901142508 | 82 | 299 | 6.0 | 16.0 | 0.00 | 0.39 | 0.22 | 31 | 1018.4 |
| 20260901141121 | 82 | 325 | 8.0 | 20.0 | 0.00 | 0.39 | 0.22 | 31 | 1018.3 |
| 20260901140507 | 82 | 323 | 6.0 | 15.0 | 0.00 | 0.39 | 0.22 | 33 | 1018.4 |
| 20260901135508 | 81 | 302 | 11.0 | 22.0 | 0.00 | 0.39 | 0.22 | 33 | 1018.5 |
| 20260901134121 | 82 | 293 | 11.0 | 19.0 | 0.00 | 0.39 | 0.22 | 32 | 1018.5 |
| 20260901133508 | 81 | 285 | 13.0 | 25.0 | 0.00 | 0.39 | 0.22 | 32 | 1018.7 |
| 20260901132508 | 82 | 302 | 11.0 | 21.0 | 0.00 | 0.39 | 0.22 | 32 | 1018.7 |
| 20260901131121 | 81 | 298 | 13.0 | 23.0 | 0.00 | 0.39 | 0.22 | 33 | 1018.9 |
| 20260901125508 | 80 | 294 | 15.0 | 27.0 | 0.00 | 0.39 | 0.22 | 34 | 1019.0 |
| 20260901124120 | 81 | 294 | 17.0 | 30.0 | 0.00 | 0.39 | 0.22 | 33 | 1019.2 |
| 20260901123507 | 80 | 296 | 13.0 | 25.0 | 0.00 | 0.39 | 0.22 | 35 | 1019.2 |
| 20260901122507 | 80 | 302 | 15.0 | 31.0 | 0.00 | 0.39 | 0.22 | 35 | 1019.3 |
| 20260901121120 | 81 | 293 | 13.0 | 24.0 | 0.00 | 0.39 | 0.22 | 36 | 1019.4 |
| 20260901120508 | 79 | 305 | 12.0 | 21.0 | 0.00 | 0.39 | 0.22 | 36 | 1019.4 |
| 20260901115508 | 80 | 294 | 15.0 | 27.0 | 0.00 | 0.39 | 0.22 | 36 | 1019.5 |
| 20260901114120 | 80 | 296 | 14.0 | 27.0 | 0.00 | 0.39 | 0.22 | 37 | 1019.6 |
| 20260901113508 | 80 | 311 | 12.0 | 23.0 | 0.00 | 0.39 | 0.22 | 38 | 1019.6 |
| 20260901112507 | 78 | 302 | 13.0 | 28.0 | 0.00 | 0.39 | 0.22 | 41 | 1019.7 |
| 20260901111121 | 80 | 320 | 11.0 | 21.0 | 0.00 | 0.39 | 0.22 | 41 | 1019.7 |
| 20260901110508 | 79 | 300 | 10.0 | 21.0 | 0.00 | 0.39 | 0.22 | 40 | 1019.6 |
| 20260901105507 | 78 | 290 | 12.0 | 28.0 | 0.00 | 0.39 | 0.22 | 40 | 1019.8 |
| 20260901104121 | 78 | 286 | 11.0 | 21.0 | 0.00 | 0.39 | 0.22 | 41 | 1019.7 |
| 20260901103507 | 79 | 297 | 16.0 | 29.0 | 0.00 | 0.39 | 0.22 | 41 | 1019.7 |
| 20260901102508 | 78 | 293 | 14.0 | 26.0 | 0.00 | 0.39 | 0.22 | 41 | 1019.7 |
| 20260901101121 | 78 | 296 | 15.0 | 26.0 | 0.00 | 0.39 | 0.22 | 41 | 1019.8 |
| 20260901100508 | 78 | 299 | 16.0 | 24.0 | 0.00 | 0.39 | 0.22 | 42 | 1019.9 |
| 20260901095508 | 77 | 292 | 13.0 | 24.0 | 0.00 | 0.39 | 0.22 | 41 | 1020.0 |
| 20260901094121 | 77 | 303 | 15.0 | 27.0 | 0.00 | 0.39 | 0.22 | 42 | 1020.0 |
| 20260901093508 | 76 | 304 | 16.0 | 28.0 | 0.00 | 0.39 | 0.22 | 43 | 1020.1 |
| 20260901092508 | 77 | 307 | 12.0 | 25.0 | 0.00 | 0.39 | 0.22 | 44 | 1020.2 |
| 20260901091120 | 75 | 304 | 12.0 | 26.0 | 0.00 | 0.39 | 0.22 | 44 | 1020.3 |
| 20260901090508 | 75 | 286 | 7.0 | 17.0 | 0.00 | 0.39 | 0.22 | 46 | 1020.3 |
| 20260901085506 | 75 | 285 | 8.0 | 16.0 | 0.00 | 0.39 | 0.22 | 49 | 1020.3 |
| 20260901084121 | 75 | 297 | 7.0 | 15.0 | 0.00 | 0.39 | 0.22 | 50 | 1020.3 |
| 20260901083508 | 74 | 285 | 8.0 | 16.0 | 0.00 | 0.39 | 0.22 | 50 | 1020.3 |
| 20260901082508 | 74 | 289 | 9.0 | 17.0 | 0.00 | 0.39 | 0.22 | 52 | 1020.2 |
| 20260901081508 | 73 | 283 | 10.0 | 19.0 | 0.00 | 0.39 | 0.22 | 54 | 1020.3 |
| 20260901080508 | 73 | 280 | 9.0 | 17.0 | 0.00 | 0.39 | 0.22 | 55 | 1020.3 |
| 20260901075508 | 72 | 280 | 9.0 | 17.0 | 0.00 | 0.39 | 0.22 | 54 | 1020.2 |
| 20260901074507 | 72 | 290 | 10.0 | 18.0 | 0.00 | 0.39 | 0.22 | 56 | 1020.2 |
| 20260901073507 | 71 | 273 | 8.0 | 16.0 | 0.00 | 0.39 | 0.22 | 56 | 1020.1 |
| 20260901072507 | 71 | 292 | 9.0 | 17.0 | 0.00 | 0.39 | 0.22 | 58 | 1020.1 |
| 20260901071507 | 71 | 302 | 7.0 | 14.0 | 0.00 | 0.39 | 0.22 | 58 | 1020.2 |
| 20260901070508 | 70 | 300 | 8.0 | 17.0 | 0.00 | 0.39 | 0.22 | 60 | 1020.0 |
| 20260901065508 | 70 | 301 | 9.0 | 17.0 | 0.00 | 0.39 | 0.22 | 60 | 1020.0 |
| 20260901064508 | 69 | 292 | 9.0 | 16.0 | 0.00 | 0.39 | 0.22 | 62 | 1019.9 |
| 20260901063508 | 69 | 293 | 11.0 | 17.0 | 0.00 | 0.39 | 0.22 | 62 | 1019.9 |